TimeHADT,TemperatureF,Dew PointF,Humidity,Sea Level PressureIn,VisibilityMPH,Wind Direction,Wind SpeedMPH,Gust SpeedMPH,PrecipitationIn,Events,Conditions,WindDirDegrees,DateUTC
12:16 AM,33.8,26.6,75,29.98,-9999.0,WNW,8.1,-,N/A,,Mostly Cloudy,300,2013-03-16 09:16:00
12:36 AM,32.0,26.6,80,29.98,-9999.0,West,6.9,-,N/A,,Scattered Clouds,270,2013-03-16 09:36:00
12:56 AM,33.8,26.6,75,29.98,-9999.0,West,6.9,-,N/A,,Mostly Cloudy,270,2013-03-16 09:56:00
1:16 AM,33.8,26.6,75,29.98,-9999.0,West,8.1,-,N/A,,Overcast,270,2013-03-16 10:16:00
1:36 AM,33.8,26.6,75,29.98,-9999.0,West,5.8,-,N/A,,Mostly Cloudy,280,2013-03-16 10:36:00
1:56 AM,33.8,26.6,75,29.99,-9999.0,West,4.6,-,N/A,,Overcast,260,2013-03-16 10:56:00
2:16 AM,33.8,26.6,75,30.00,-9999.0,West,6.9,-,N/A,,Overcast,260,2013-03-16 11:16:00
2:36 AM,33.8,26.6,75,30.00,-9999.0,WSW,6.9,-,N/A,,Overcast,250,2013-03-16 11:36:00
2:56 AM,32.0,24.8,75,30.00,-9999.0,WSW,8.1,-,N/A,,Mostly Cloudy,250,2013-03-16 11:56:00
3:16 AM,32.0,24.8,75,30.01,-9999.0,WSW,9.2,-,N/A,,Partly Cloudy,250,2013-03-16 12:16:00
3:36 AM,30.2,24.8,80,30.01,-9999.0,WSW,9.2,-,N/A,,Clear,250,2013-03-16 12:36:00
3:56 AM,30.2,23.0,75,30.02,-9999.0,WSW,6.9,-,N/A,,Clear,250,2013-03-16 12:56:00
4:16 AM,30.2,23.0,75,30.02,-9999.0,WSW,6.9,-,N/A,,Clear,240,2013-03-16 13:16:00
4:36 AM,30.2,21.2,69,30.03,-9999.0,WSW,6.9,-,N/A,,Clear,250,2013-03-16 13:36:00
4:56 AM,30.2,23.0,75,30.03,-9999.0,WSW,8.1,-,N/A,,Clear,250,2013-03-16 13:56:00
5:16 AM,30.2,21.2,69,30.03,-9999.0,SW,8.1,-,N/A,,Clear,230,2013-03-16 14:16:00
5:36 AM,32.0,21.2,64,30.04,-9999.0,WSW,6.9,-,N/A,,Clear,240,2013-03-16 14:36:00
5:56 AM,30.2,21.2,69,30.04,-9999.0,Calm,Calm,-,N/A,,Clear,0,2013-03-16 14:56:00
6:16 AM,30.2,21.2,69,30.05,-9999.0,Calm,Calm,-,N/A,,Clear,0,2013-03-16 15:16:00
6:36 AM,26.6,19.4,74,30.06,-9999.0,Calm,Calm,-,N/A,,Clear,0,2013-03-16 15:36:00
6:56 AM,28.4,21.2,74,30.07,-9999.0,Calm,Calm,-,N/A,,Clear,0,2013-03-16 15:56:00
7:16 AM,28.4,21.2,74,30.08,-9999.0,Calm,Calm,-,N/A,,Clear,0,2013-03-16 16:16:00
7:36 AM,28.4,21.2,74,30.08,-9999.0,Calm,Calm,-,N/A,,Clear,0,2013-03-16 16:36:00
7:56 AM,28.4,21.2,74,30.09,-9999.0,Calm,Calm,-,N/A,,Clear,0,2013-03-16 16:56:00
8:16 AM,28.4,21.2,74,30.09,-9999.0,Calm,Calm,-,N/A,,Clear,0,2013-03-16 17:16:00
8:36 AM,28.4,21.2,74,30.09,-9999.0,North,3.5,-,N/A,,Clear,350,2013-03-16 17:36:00
8:56 AM,28.4,19.4,69,30.10,-9999.0,Calm,Calm,-,N/A,,Clear,0,2013-03-16 17:56:00
9:16 AM,30.2,21.2,69,30.11,-9999.0,Calm,Calm,-,N/A,,Clear,0,2013-03-16 18:16:00
9:36 AM,30.2,21.2,69,30.11,-9999.0,Calm,Calm,-,N/A,,Clear,0,2013-03-16 18:36:00
9:56 AM,28.4,21.2,74,30.11,-9999.0,Calm,Calm,-,N/A,,Clear,0,2013-03-16 18:56:00
10:16 AM,32.0,23.0,69,30.11,-9999.0,Calm,Calm,-,N/A,,Clear,0,2013-03-16 19:16:00
10:36 AM,33.8,23.0,65,30.12,-9999.0,Calm,Calm,-,N/A,,Clear,0,2013-03-16 19:36:00
10:56 AM,35.6,24.8,65,30.12,-9999.0,Calm,Calm,-,N/A,,Clear,0,2013-03-16 19:56:00
11:16 AM,35.6,24.8,65,30.13,-9999.0,SW,5.8,-,N/A,,Clear,230,2013-03-16 20:16:00
11:36 AM,37.4,24.8,60,30.13,-9999.0,SW,6.9,-,N/A,,Clear,230,2013-03-16 20:36:00
11:56 AM,37.4,24.8,60,30.13,-9999.0,SSW,6.9,-,N/A,,Clear,210,2013-03-16 20:56:00
12:16 PM,37.4,24.8,60,30.13,-9999.0,SSW,9.2,-,N/A,,Clear,210,2013-03-16 21:16:00
12:36 PM,37.4,23.0,56,30.14,-9999.0,SSW,5.8,-,N/A,,Partly Cloudy,210,2013-03-16 21:36:00
12:56 PM,37.4,24.8,60,30.14,-9999.0,SSW,4.6,-,N/A,,Scattered Clouds,210,2013-03-16 21:56:00
1:16 PM,39.2,24.8,56,30.15,-9999.0,SSW,4.6,-,N/A,,Mostly Cloudy,210,2013-03-16 22:16:00
1:36 PM,37.4,23.0,56,30.15,-9999.0,West,9.2,-,N/A,,Overcast,270,2013-03-16 22:36:00
1:56 PM,37.4,24.8,60,30.15,-9999.0,SW,10.4,-,N/A,,Overcast,220,2013-03-16 22:56:00
2:16 PM,37.4,23.0,56,30.15,-9999.0,SW,9.2,-,N/A,,Overcast,230,2013-03-16 23:16:00
2:36 PM,37.4,21.2,52,30.15,-9999.0,SW,11.5,-,N/A,,Mostly Cloudy,220,2013-03-16 23:36:00
2:56 PM,37.4,21.2,52,30.15,-9999.0,SW,11.5,-,N/A,,Scattered Clouds,220,2013-03-16 23:56:00
3:16 PM,39.2,21.2,49,30.15,-9999.0,SSW,9.2,-,N/A,,Scattered Clouds,210,2013-03-17 00:16:00
3:36 PM,37.4,23.0,56,30.15,-9999.0,SW,10.4,-,N/A,,Mostly Cloudy,230,2013-03-17 00:36:00
3:56 PM,37.4,21.2,52,30.15,-9999.0,SW,9.2,-,N/A,,Overcast,220,2013-03-17 00:56:00
4:16 PM,37.4,21.2,52,30.15,-9999.0,SSW,9.2,-,N/A,,Overcast,210,2013-03-17 01:16:00
4:36 PM,37.4,23.0,56,30.16,-9999.0,SSW,11.5,-,N/A,,Overcast,200,2013-03-17 01:36:00
4:56 PM,39.2,24.8,56,30.16,-9999.0,SSW,9.2,-,N/A,,Overcast,200,2013-03-17 01:56:00
5:16 PM,37.4,24.8,60,30.16,-9999.0,SW,9.2,-,N/A,,Overcast,220,2013-03-17 02:16:00
5:36 PM,37.4,24.8,60,30.17,-9999.0,SSW,9.2,-,N/A,,Overcast,200,2013-03-17 02:36:00
5:56 PM,37.4,24.8,60,30.17,-9999.0,SSW,10.4,-,N/A,,Overcast,210,2013-03-17 02:56:00
6:16 PM,37.4,24.8,60,30.17,-9999.0,SSW,9.2,-,N/A,,Overcast,200,2013-03-17 03:16:00
6:36 PM,37.4,24.8,60,30.17,-9999.0,SSW,9.2,-,N/A,,Overcast,210,2013-03-17 03:36:00
6:56 PM,37.4,24.8,60,30.17,-9999.0,SW,8.1,-,N/A,,Overcast,220,2013-03-17 03:56:00
7:16 PM,37.4,24.8,60,30.17,-9999.0,SW,9.2,-,N/A,,Overcast,220,2013-03-17 04:16:00
7:36 PM,37.4,24.8,60,30.18,-9999.0,SSW,10.4,-,N/A,,Overcast,210,2013-03-17 04:36:00
7:56 PM,37.4,23.0,56,30.18,-9999.0,SW,6.9,-,N/A,,Overcast,220,2013-03-17 04:56:00
8:16 PM,37.4,21.2,52,30.19,-9999.0,West,5.8,-,N/A,,Overcast,260,2013-03-17 05:16:00
8:36 PM,35.6,24.8,65,30.20,-9999.0,Calm,Calm,-,N/A,,Overcast,0,2013-03-17 05:36:00
8:56 PM,35.6,24.8,65,30.20,-9999.0,SW,5.8,-,N/A,,Overcast,220,2013-03-17 05:56:00
9:16 PM,35.6,21.2,56,30.21,-9999.0,WSW,3.5,-,N/A,,Overcast,240,2013-03-17 06:16:00
9:36 PM,35.6,24.8,65,30.20,-9999.0,WSW,4.6,-,N/A,,Overcast,240,2013-03-17 06:36:00
9:56 PM,35.6,24.8,65,30.20,-9999.0,SW,4.6,-,N/A,,Overcast,230,2013-03-17 06:56:00
10:16 PM,33.8,24.8,70,30.20,-9999.0,SSW,6.9,-,N/A,,Overcast,210,2013-03-17 07:16:00
10:36 PM,33.8,23.0,65,30.21,-9999.0,SSW,6.9,-,N/A,,Overcast,210,2013-03-17 07:36:00
10:56 PM,33.8,23.0,65,30.21,-9999.0,SW,5.8,-,N/A,,Mostly Cloudy,230,2013-03-17 07:56:00
11:16 PM,33.8,21.2,60,30.22,-9999.0,Calm,Calm,-,N/A,,Mostly Cloudy,0,2013-03-17 08:16:00
11:36 PM,32.0,24.8,75,30.22,-9999.0,Calm,Calm,-,N/A,,Mostly Cloudy,0,2013-03-17 08:36:00
11:56 PM,30.2,23.0,75,30.22,-9999.0,Calm,Calm,-,N/A,,Mostly Cloudy,0,2013-03-17 08:56:00